COSMOS 1275 DEB, 42140

Orbit data source: Space-Track

COSMOS 1275 DEB, 42140 is space debris in LEO originally from a launch on Thu, 04 Jun 1981 UTC launched from the Plesetsk Missile And Space Complex (PKMTR). Debris objects in space refer to the collection of defunct objects orbiting the Earth. Examples of debris include non-operational satellites, rocket bodies, and fragments generated from explosions, collisions, or faulty payload assembly.

Loading next visibility...
Identifier
42140, 1981-053RC
Orbit
LEO
Country
Flag of CISCIS
Related business
Manufacturer
Unknown
Mission
Spacecraft
Bus & Motor
Unknown
Mass
Unknown
Launch date (UTC)
1981-06-04 (44 years ago)
Launch vehicle
Unknown
Launch site
Plesetsk Missile And Space Complex (PKMTR)
Object type
Payload
Rocket body
Debris
Shape & HBR
Unknown shape, 0.1 m
Radar Cross Section
Small (<0.1 m²)

Expand to show TLE details & history
Last TLE update: 1 week ago

TLE from 1 week ago
0 COSMOS 1275 DEB
1 42140U 81053RC  25276.81083959  .00001398  00000-0  19311-2 0  9991
2 42140  83.1362 300.5674 0199802 162.1015 198.7299 13.49705263550933
Epoch: 2025-10-03T19:27Z
TLE epoch observation values (Epoch: 2025-10-03T19:27:36.540Z)
Latitude
-0.00011°
Longitude
-4.08666°
Altitude
1,217.537 km
Speed
7.177 km/s
True Right ascension
20h 02m 16s
True Declination
0° 00' 00"
Sunlit
Object was in daylight at epoch
Visualization orbit readout
Latitude
Unknown
Longitude
Unknown
Altitude
Unknown
Speed
Unknown
Apparent Right ascension
Unknown
Apparent Declination
Unknown
Sunlit
N/A
Visualization observer readout
Local Sidereal Time
21:07:18
Azimuth
Unknown
Elevation
Unknown
Doppler factor
Unknown
Orbital elements
Apogee altitude
1,219.344 km
Perigee altitude
921.693 km
Semi-major axis
7,448.655 km
Eccentricity
0.01998
Inclination
83.1362°
RAAN
300.5674°
Arg. of periapsis
162.1015°
True anomaly
198.01173°
Mean anomaly
198.7299°
Eccentric anomaly
198.36914°
Mean motion
3.37619 °/min
Orbital period
106.63 mins
BSTAR
0.0019311
Loading maneuver chart data...
Computing Atmospheric mass density...
Loading historical data...
Loading historical data...
Loading historical data...
Loading historical data...
Loading historical data...
Loading historical data...
Loading historical data...

Documentation

Showing up to 5 results
|